Wind_Speed
8 8 8 8 8 8 7 7 6 6 6 6 7 8 9 9 11 13 15 17 17 18 18 18 18 17 17 16 16 15 15 16 17 17 16 17 18 17 17 17 17 19 20 20 19 16 13 11 9 8 7 6 4 6 8 8 7 6 6 6 4 9 8 12 17 15 16 22 21 19 18 17 19 19 19 19 17 16 15 14 13 15 19 20 18 16 17 17
9 9 9 9 9 9 9 8 7 7 6 6 6 7 8 9 10 11 13 15 16 18 18 18 18 18 17 17 16 16 15 16 16 17 18 19 18 17 16 15 15 18 20 19 17 15 12 10 8 8 6 5 7 7 6 8 7 6 5 5 4 6 7 13 17 15 17 22 22 19 17 15 16 18 17 18 17 16 15 15 17 20 21 20 18 16 16 17
9 9 9 9 9 9 9 9 9 8 7 7 7 7 7 8 9 10 11 13 14 16 17 18 18 19 18 17 17 15 16 15 15 18 20 20 18 18 16 14 14 16 17 17 16 15 12 10 9 7 5 6 10 8 7 7 7 7 5 6 5 4 5 12 14 14 19 21 22 19 16 15 16 17 16 16 17 16 16 17 18 19 20 20 19 17 16 17
10 10 10 9 9 9 9 9 9 9 9 8 7 7 7 8 8 9 10 11 12 13 15 17 18 19 18 18 17 16 16 12 15 20 19 20 19 18 16 14 13 14 16 18 18 17 14 13 11 9 8 9 11 9 9 7 6 7 5 5 5 4 5 10 13 13 18 20 20 18 17 17 18 17 16 17 18 17 16 15 14 16 19 20 20 18 17 18
11 11 11 10 10 10 9 9 8 9 10 9 9 8 7 8 8 9 9 9 11 12 14 15 17 19 19 19 17 16 14 8 16 22 17 19 20 17 17 15 14 14 16 18 19 18 17 15 13 12 11 11 11 10 10 9 7 6 6 7 6 5 4 11 15 16 19 19 18 17 18 19 19 18 18 18 17 16 16 15 14 15 16 18 19 19 18 19
11 11 11 11 11 11 10 9 9 8 9 9 10 9 9 8 9 9 9 9 10 11 12 13 15 17 18 20 17 17 14 9 19 23 17 19 20 18 17 16 15 15 16 18 19 19 18 16 14 13 12 11 11 10 9 9 8 4 5 6 7 8 6 12 17 19 20 18 17 17 19 20 19 18 18 17 15 16 16 17 17 17 17 18 19 20 19 20
11 11 11 11 11 11 10 10 10 9 9 9 9 10 10 10 10 9 9 9 10 11 11 12 14 15 17 19 18 17 15 14 20 20 16 19 19 18 18 17 17 16 16 18 18 19 18 17 16 13 11 11 11 10 9 8 7 4 4 5 5 9 7 11 18 21 20 17 17 18 19 20 19 17 17 17 17 19 19 19 19 19 20 20 20 20 20 20
11 11 11 11 11 10 10 10 10 10 10 10 10 10 10 10 10 10 9 9 9 10 11 12 13 15 16 16 18 16 13 18 23 18 15 18 19 19 18 18 18 17 16 17 17 17 17 17 16 13 11 12 11 10 10 8 7 6 8 6 5 9 8 13 19 19 19 17 16 18 19 19 17 16 17 18 18 20 20 19 20 20 21 22 21 20 19 19
12 12 12 11 11 10 10 10 10 10 10 10 11 11 10 10 10 10 10 9 9 9 10 12 12 15 15 15 17 11 11 22 24 18 15 17 18 19 19 18 18 17 16 16 17 17 17 17 15 13 11 12 10 8 6 6 8 9 8 5 6 9 9 14 20 20 19 20 18 19 21 19 17 16 18 19 19 20 19 20 21 21 22 22 22 20 19 19
12 12 12 11 11 11 10 10 10 10 10 10 10 11 11 11 10 10 10 9 9 8 9 10 12 14 14 15 14 8 14 24 21 19 18 16 17 19 19 19 18 17 16 16 18 19 18 14 12 12 11 11 11 8 4 5 8 9 8 6 6 8 10 15 21 20 19 20 20 20 20 19 17 16 18 20 20 20 20 22 22 22 22 22 22 20 19 19
12 12 12 11 11 11 11 11 11 11 11 11 11 11 11 11 11 10 10 10 9 9 9 9 11 13 14 15 11 8 19 24 20 21 19 16 17 19 20 19 19 18 16 15 17 19 18 13 11 12 11 11 10 7 6 7 8 7 5 6 6 8 10 16 22 20 18 19 18 18 19 18 15 14 19 22 21 20 21 24 23 22 22 22 22 21 20 19
12 13 12 11 11 11 11 12 12 12 13 12 12 11 11 11 11 10 10 9 9 9 8 9 10 12 14 14 12 15 22 21 19 20 19 17 16 18 21 21 20 19 17 15 15 18 19 14 12 12 10 9 7 6 8 9 9 9 5 5 7 10 11 17 22 20 20 20 16 17 18 17 14 13 20 23 21 21 22 24 24 23 23 23 22 21 20 19
12 13 12 11 11 11 12 12 13 13 14 13 12 11 11 11 10 10 10 9 9 9 9 9 9 12 13 12 15 20 18 16 18 19 19 18 15 18 22 22 22 21 18 15 14 17 18 17 16 14 12 7 6 11 15 11 9 10 8 6 8 10 10 17 22 20 22 20 18 19 17 17 15 16 21 23 22 22 24 25 25 23 23 23 22 20 20 19
12 13 12 11 10 11 12 13 14 14 14 14 13 12 11 10 10 10 10 9 8 8 8 9 9 11 11 12 16 17 14 15 17 18 18 18 16 18 22 23 24 23 21 18 14 15 18 21 21 15 15 12 9 14 16 11 9 10 7 7 9 10 11 16 20 21 22 21 21 18 15 17 18 19 22 24 22 22 25 26 25 24 23 23 21 20 19 18
12 12 12 11 10 11 12 13 14 15 15 13 12 12 11 10 10 10 9 9 8 7 7 8 9 10 8 10 15 14 12 13 15 17 17 17 16 17 21 24 24 24 23 20 14 17 22 24 24 16 13 14 13 12 11 9 10 10 7 7 10 10 11 17 19 22 22 22 24 18 14 18 18 21 24 24 23 22 26 26 25 24 23 22 21 20 19 18
12 12 11 11 10 11 12 14 15 15 13 12 12 11 10 10 9 9 9 8 7 6 5 5 8 8 3 5 13 11 9 11 13 16 16 16 16 16 20 23 24 24 24 22 17 20 26 25 22 16 11 13 14 12 11 9 11 12 8 7 10 11 13 16 18 23 22 23 25 19 17 19 17 22 24 24 24 23 26 26 25 24 23 22 21 20 19 18
12 12 11 10 10 12 13 14 14 13 12 11 10 10 10 9 9 9 8 7 6 4 3 4 4 5 4 5 8 6 7 11 14 15 14 15 15 16 19 22 24 24 23 23 20 20 24 23 19 15 14 15 15 14 13 11 11 12 9 6 8 11 13 15 18 21 21 22 25 19 17 19 18 23 24 24 24 23 25 26 25 25 23 22 21 20 19 18
12 12 11 11 11 12 13 14 13 12 11 10 9 8 8 8 10 11 10 7 2 4 7 3 2 1 4 4 3 6 10 13 14 14 14 14 15 16 19 21 23 24 21 18 17 18 21 21 16 14 15 16 16 16 15 13 10 9 10 7 7 9 11 15 18 21 20 21 24 19 17 19 19 23 24 24 25 23 24 25 25 25 23 23 22 20 20 19
12 12 11 11 11 12 13 13 11 10 9 8 7 5 8 11 12 13 12 7 2 3 7 1 6 3 2 5 7 10 10 11 13 13 13 13 14 15 18 21 21 20 17 14 15 18 19 18 16 17 18 18 18 16 14 11 7 8 11 8 5 8 10 14 17 20 20 20 22 21 17 19 22 24 25 26 26 25 25 25 25 24 24 23 22 21 20 20
12 11 10 11 12 12 12 10 9 8 7 6 5 5 11 14 13 12 12 7 1 2 2 3 5 1 1 5 6 9 8 9 12 12 13 13 13 14 17 19 17 16 14 12 15 17 18 18 19 21 20 17 17 14 11 10 6 8 9 7 6 8 10 13 16 17 19 18 22 21 17 20 25 25 26 27 26 25 25 26 26 25 25 24 22 22 21 20
11 10 10 10 11 11 10 8 7 6 5 6 5 6 10 11 7 6 8 7 7 4 3 6 8 7 7 7 6 5 7 10 11 11 13 13 12 13 16 17 15 16 16 13 14 16 18 21 21 21 18 15 16 15 13 11 8 7 7 7 7 10 9 10 12 16 18 18 22 23 18 20 26 25 25 26 25 26 26 26 26 25 25 24 23 22 21 20
10 9 9 10 11 9 7 6 6 6 7 7 6 7 8 7 4 3 5 5 5 6 3 4 7 9 9 8 7 8 9 10 11 12 14 14 13 13 13 16 16 16 17 14 15 17 20 23 21 18 17 14 12 14 14 13 12 9 5 8 8 10 9 7 9 14 19 19 20 22 20 20 25 25 22 23 24 25 26 26 25 25 24 24 24 22 22 21
9 8 8 9 9 7 6 6 7 8 8 7 6 6 5 5 1 7 8 5 3 4 1 2 3 4 5 5 7 11 11 10 11 13 15 15 14 13 12 15 16 15 17 17 17 19 19 23 20 16 16 13 11 12 12 12 13 9 6 10 5 7 8 6 8 13 19 20 19 21 20 18 22 25 22 21 23 24 25 25 24 23 24 23 23 22 22 22
8 7 7 8 7 6 6 7 8 8 8 7 7 6 4 2 3 9 6 5 2 2 2 4 4 4 5 4 6 12 10 9 11 13 15 16 15 12 12 14 16 16 17 18 18 18 17 19 18 16 15 14 13 14 12 12 13 10 4 3 2 7 7 7 9 13 18 18 18 21 18 15 20 24 24 22 21 22 24 26 25 23 24 23 22 22 22 22
7 6 6 6 5 5 7 8 7 7 7 7 7 7 5 5 5 9 5 2 4 5 4 4 5 5 6 6 10 11 8 7 9 12 13 15 15 12 12 13 16 16 16 18 18 18 17 15 16 17 17 14 14 16 14 13 12 11 7 1 2 6 7 7 9 14 16 13 17 21 14 11 19 22 23 23 21 22 24 25 26 24 23 24 23 22 22 22
6 5 5 4 5 7 8 8 5 6 9 10 7 5 4 5 6 5 3 3 5 5 4 5 4 4 4 8 11 8 8 8 9 10 11 15 14 11 11 13 16 15 15 17 17 18 16 14 15 16 16 15 15 15 13 13 13 12 9 5 4 6 6 8 12 14 13 10 16 21 12 8 16 19 20 24 23 23 24 24 26 26 24 25 25 24 23 22
4 4 4 3 7 7 7 6 4 7 8 8 4 2 3 5 3 3 4 3 6 4 3 4 2 3 4 9 11 6 7 10 10 8 10 16 14 11 13 14 16 13 13 17 17 18 15 12 15 16 14 14 16 15 11 12 13 6 4 7 6 7 7 9 13 12 8 7 14 20 14 7 12 17 18 23 25 22 24 25 25 26 26 26 26 25 24 23
3 3 2 6 9 7 6 5 4 7 4 3 1 3 4 3 2 3 4 0 6 4 2 3 2 3 4 9 11 6 5 8 10 8 9 14 13 12 13 12 15 13 13 19 17 17 16 11 11 17 17 15 16 16 10 11 13 3 2 6 6 8 9 11 10 8 7 7 11 18 17 9 10 18 17 21 27 24 24 27 26 26 27 27 26 25 24 24
2 2 3 9 9 7 5 4 5 6 5 2 2 4 3 2 2 2 5 1 4 4 4 5 3 5 7 10 10 7 6 7 8 8 9 12 14 15 12 10 15 13 12 19 16 11 15 13 9 14 19 16 15 16 10 10 12 5 2 5 5 7 10 11 6 6 7 5 6 15 20 11 8 18 20 21 30 31 28 27 26 27 27 27 27 25 24 25
1 0 6 10 8 6 5 4 5 5 6 5 5 5 4 2 1 5 3 2 3 5 6 4 5 8 8 9 9 8 8 6 5 9 10 9 13 16 11 9 15 13 11 19 19 8 9 14 11 12 17 16 14 15 13 12 10 5 4 5 6 9 10 9 5 7 6 3 3 11 21 15 6 15 24 24 28 31 31 29 27 27 28 27 27 26 26 26
0 2 8 10 7 6 5 4 4 4 5 5 5 5 3 2 7 7 2 5 2 3 4 4 5 8 7 6 8 9 9 7 7 11 11 9 13 15 10 10 14 13 12 18 21 12 8 11 13 14 15 14 15 15 13 13 10 6 6 7 7 9 8 7 6 6 3 2 3 9 18 17 9 12 22 25 24 26 29 32 30 29 29 28 27 26 27 27
0 3 10 10 7 6 4 4 4 4 6 5 5 5 1 6 7 3 5 3 2 1 2 5 5 7 7 5 7 10 9 8 9 12 11 11 14 14 12 13 14 13 14 17 20 16 11 11 13 16 17 14 13 12 11 13 14 10 8 9 9 8 7 6 6 6 4 2 5 10 14 14 14 12 16 23 25 25 27 29 30 29 28 28 27 26 27 28
1 5 11 10 7 5 5 5 4 5 6 4 4 3 5 8 3 4 5 3 1 1 2 4 3 5 7 7 7 9 9 8 9 11 11 12 13 14 15 14 13 14 13 15 19 18 14 12 12 15 18 18 15 14 12 13 17 16 13 12 10 7 5 5 5 5 5 5 7 12 13 10 11 11 11 16 22 25 27 27 28 29 28 28 28 27 27 28
1 6 12 10 6 6 5 5 5 5 5 4 3 4 8 6 4 4 5 7 4 1 2 3 4 5 6 7 8 8 7 6 8 11 11 13 12 14 16 11 12 15 12 13 18 19 15 13 16 18 18 18 21 21 14 10 15 19 15 13 12 9 5 4 3 1 2 5 6 10 9 4 4 8 8 13 18 25 30 28 26 28 28 27 27 27 27 28
2 7 12 10 7 6 5 5 4 4 4 4 4 7 5 3 5 5 4 5 3 1 3 4 6 6 6 6 7 9 6 3 8 11 11 13 12 11 14 10 10 14 12 11 15 18 16 12 15 20 18 16 21 24 17 11 13 17 17 15 14 12 8 8 4 2 3 4 3 5 5 1 3 6 7 12 17 24 30 28 24 25 27 26 27 27 27 28
4 9 11 9 8 6 5 5 4 4 4 3 7 7 2 4 5 6 4 3 4 2 2 5 6 7 6 5 6 10 7 2 8 12 10 12 11 9 11 11 11 14 12 8 9 16 15 10 9 16 17 16 17 21 21 15 10 12 17 18 15 12 10 10 5 3 4 3 5 9 7 6 5 6 7 10 15 23 28 27 23 24 26 27 27 29 28 28
6 10 8 8 8 6 5 5 3 3 2 3 7 4 2 3 5 6 5 4 4 2 3 5 5 6 6 6 6 8 7 4 8 11 9 10 10 7 7 8 8 10 10 7 7 11 13 12 11 13 15 16 14 16 21 19 12 10 15 16 15 13 10 9 7 5 6 4 4 8 9 11 9 7 9 11 14 22 26 26 24 24 27 27 27 29 29 28
8 9 6 7 9 7 5 4 3 2 1 5 5 2 2 2 5 5 5 4 3 2 5 6 4 6 5 6 7 6 6 6 7 8 7 8 9 7 7 7 6 7 9 8 7 7 11 12 11 13 14 15 14 14 19 21 20 16 12 10 13 14 12 11 10 6 6 3 2 5 8 11 8 6 12 15 17 21 23 25 26 26 29 29 28 28 28 27
7 6 5 9 9 7 5 4 4 3 3 7 4 1 1 2 4 4 5 4 3 3 6 6 4 6 4 4 7 7 6 7 7 8 7 7 8 7 5 8 7 6 9 11 8 5 10 12 7 10 13 15 16 18 20 20 22 21 15 10 13 15 12 12 11 8 7 3 2 4 5 4 4 5 10 13 16 19 20 22 25 27 30 31 30 29 28 27
6 5 8 12 9 6 6 5 5 4 5 6 4 1 2 2 2 3 4 3 3 4 6 4 3 5 3 4 5 6 6 7 8 8 7 6 5 7 5 6 6 5 6 10 10 6 9 13 8 6 10 16 18 20 21 18 19 22 20 15 14 15 14 11 11 12 11 6 2 3 1 3 4 5 8 9 12 14 15 18 21 24 29 33 33 31 30 29
6 5 10 14 13 8 7 4 6 7 6 5 2 1 1 2 2 3 3 3 3 3 4 2 3 4 3 4 4 4 6 7 9 7 7 8 4 4 6 7 6 5 5 8 11 10 9 12 11 7 10 15 17 17 18 17 15 19 21 19 16 16 16 11 9 11 12 9 5 3 1 1 2 5 7 9 11 11 11 13 19 22 26 33 36 35 33 32
7 7 10 13 12 9 7 5 6 6 4 3 2 0 1 2 3 4 4 3 2 1 2 1 2 2 2 3 3 4 5 6 7 5 5 6 3 4 5 5 5 6 7 9 10 11 10 11 12 10 9 12 14 14 18 18 15 15 18 19 18 17 16 13 10 10 12 11 9 6 3 2 5 6 8 8 10 11 10 11 17 20 23 31 39 39 35 33
3 6 11 13 11 9 7 6 6 6 3 2 3 2 2 2 2 3 4 3 3 1 1 0 2 2 2 2 3 3 4 4 3 3 4 5 4 5 5 4 4 5 6 7 6 7 11 11 11 12 10 9 13 12 15 18 15 15 16 18 20 19 17 17 13 10 10 10 10 8 4 4 4 4 7 7 8 9 10 12 14 15 19 28 37 40 38 34
4 6 7 11 11 10 8 7 6 5 3 2 4 3 1 1 1 3 4 3 2 2 1 0 1 2 1 2 2 1 3 4 2 3 4 4 4 6 6 5 5 1 4 5 3 4 9 10 11 12 9 10 14 10 12 16 16 16 16 16 19 19 18 18 14 10 12 10 9 8 3 6 3 1 1 4 6 7 9 12 12 12 17 26 36 41 40 35
6 5 4 6 8 9 8 7 6 5 3 4 4 3 3 2 1 2 2 3 2 2 1 0 1 2 1 1 2 2 2 4 4 3 4 4 4 5 5 3 2 1 3 4 2 4 7 8 10 12 10 9 8 5 9 15 18 19 17 16 17 19 20 18 14 14 14 11 10 9 3 7 3 4 5 1 4 6 8 12 12 11 15 23 34 40 39 35
6 7 6 6 7 9 9 7 6 5 3 5 4 3 4 1 1 2 2 2 1 2 1 0 1 2 2 3 4 3 2 3 4 4 4 4 4 3 3 2 1 2 3 2 2 5 7 8 10 12 13 9 5 7 7 12 17 19 19 18 17 17 19 18 15 16 15 13 13 9 2 2 5 7 8 5 3 7 9 13 14 13 15 20 30 37 38 36
7 7 7 7 8 8 8 6 7 5 2 5 5 3 3 1 1 2 1 2 1 1 1 1 2 2 3 4 5 4 3 3 2 4 5 3 2 3 3 1 2 4 3 2 3 3 7 10 10 10 13 13 10 8 8 12 16 17 18 19 17 15 14 16 17 15 12 12 12 7 4 7 8 8 9 8 3 5 7 12 15 13 14 18 27 35 37 37
8 6 7 8 8 5 6 6 6 5 4 4 4 3 3 2 1 1 1 2 1 1 2 2 2 3 2 2 4 4 4 3 3 3 4 3 3 4 4 3 2 4 3 3 4 3 7 11 9 9 12 14 12 10 8 12 14 14 15 16 16 16 16 17 18 14 12 14 11 5 4 6 6 7 10 9 6 5 4 9 15 15 15 16 22 31 35 36
8 6 6 9 9 4 4 6 6 6 6 5 4 4 4 3 2 1 1 3 2 2 2 2 1 2 2 1 3 3 4 4 4 4 5 5 5 5 4 4 3 4 4 4 5 5 7 9 9 9 11 12 12 11 9 12 13 12 12 11 12 15 16 16 16 16 16 16 12 7 6 6 5 7 8 7 7 7 4 6 13 16 17 17 18 23 30 36
11 10 8 9 8 6 5 6 6 6 6 6 5 4 3 2 2 2 0 3 4 2 1 1 1 0 1 1 1 2 3 2 2 2 4 5 6 5 6 6 6 7 6 5 5 5 6 8 8 9 10 11 12 11 12 12 12 10 7 6 9 11 12 12 12 13 15 13 10 7 6 6 4 4 5 7 9 7 4 4 10 14 17 18 18 20 24 31
13 12 10 8 8 8 7 7 7 8 7 6 5 5 4 4 3 3 1 2 3 3 2 2 1 1 1 1 1 2 2 2 1 1 2 3 3 3 5 5 6 8 7 6 5 5 6 8 8 9 11 10 10 13 14 12 11 10 4 2 4 7 8 9 9 8 9 9 11 11 8 7 6 5 7 9 9 6 6 5 7 13 17 19 19 19 20 23
14 14 13 10 8 9 9 8 8 9 8 7 5 5 5 4 3 2 0 1 1 1 1 1 1 1 1 2 2 1 2 1 2 1 1 2 2 2 4 4 5 6 7 7 7 6 6 8 10 12 12 9 9 11 14 14 13 10 3 2 2 2 4 4 4 5 7 7 8 9 9 9 9 8 8 8 7 6 6 6 6 12 17 17 17 18 18 19
Wind_Direction
351 347 343 341 336 333 328 324 319 307 297 286 279 274 265 258 253 251 248 246 244 243 243 243 243 243 241 239 237 234 233 232 230 229 226 224 223 222 222 223 218 218 221 221 223 226 230 234 235 243 252 261 261 252 266 283 298 314 297 286 196 172 171 175 174 168 165 158 154 154 151 152 149 147 149 142 139 143 136 137 134 123 136 158 173 166 156 157
347 343 340 336 332 329 325 323 319 312 306 296 289 282 275 268 260 255 252 250 247 245 244 244 244 243 242 241 237 235 234 233 231 229 229 226 224 223 222 220 216 217 220 219 221 223 224 228 227 236 243 239 247 252 264 276 297 308 278 267 217 188 174 167 166 162 162 158 153 151 151 154 153 150 149 144 144 144 137 136 135 136 151 166 166 161 158 157
347 343 340 335 332 328 324 322 317 312 306 300 295 287 281 274 267 263 258 255 252 249 246 245 245 245 243 241 238 237 235 235 235 230 228 227 224 223 222 216 214 214 215 214 216 215 211 211 213 220 218 215 234 250 264 269 287 286 259 256 240 205 169 152 146 153 161 158 153 150 151 153 151 149 147 146 142 139 140 142 145 151 158 158 157 161 160 156
348 346 342 338 334 328 325 322 318 313 308 304 297 289 283 274 270 267 263 261 256 252 249 246 245 246 244 242 239 237 235 239 242 231 224 228 224 223 222 212 210 208 207 208 209 209 202 204 204 199 202 221 238 249 261 271 281 280 268 263 237 198 191 161 138 147 161 157 153 152 149 146 145 145 143 141 137 139 149 149 149 154 155 154 154 158 158 156
349 347 343 340 336 332 328 324 319 313 309 305 301 295 287 278 272 267 265 263 258 254 251 248 246 245 246 244 238 236 232 231 241 231 220 227 224 221 221 211 207 202 202 204 206 206 200 200 200 194 202 223 239 244 262 280 280 283 281 272 243 217 204 173 151 145 158 157 155 153 144 145 146 141 134 133 136 144 153 148 145 151 153 152 152 156 159 155
348 347 344 340 337 334 331 328 324 317 310 304 301 299 294 285 277 271 266 261 258 255 250 247 247 245 245 245 241 236 221 213 240 233 221 226 221 219 219 210 206 199 197 201 202 205 200 196 198 199 209 227 236 238 260 278 271 274 276 269 234 219 201 177 164 148 154 158 157 151 146 150 144 136 133 134 140 142 148 149 145 148 151 151 152 157 158 154
347 348 343 339 337 335 332 330 327 323 317 309 304 300 297 294 287 281 273 265 259 254 250 246 245 244 244 243 242 238 222 224 242 236 224 225 219 217 215 208 205 199 197 199 198 202 199 195 197 200 214 232 240 243 250 266 268 259 266 280 219 211 203 179 167 152 154 160 161 155 149 150 144 143 139 134 139 140 146 150 145 148 152 153 156 159 159 156
347 347 343 339 336 334 332 330 328 325 322 315 310 304 301 298 294 290 283 274 264 258 254 246 242 242 242 241 241 241 232 233 237 235 229 224 219 215 212 208 203 200 199 195 194 198 197 195 195 199 219 236 241 245 244 250 268 260 261 277 224 205 194 178 168 154 154 159 164 155 145 148 152 151 136 131 141 146 150 149 146 150 153 155 157 160 160 157
345 346 344 339 335 335 334 332 331 327 324 319 313 308 304 299 293 291 285 279 270 261 255 248 243 241 240 240 239 234 235 237 234 235 232 223 219 213 209 206 201 201 199 191 188 191 195 197 193 198 223 241 244 255 260 254 259 257 256 256 221 206 189 178 170 159 160 163 162 153 147 153 158 148 134 136 146 149 150 146 147 152 154 156 157 160 160 159
343 344 344 340 335 335 335 336 336 332 328 323 317 311 306 302 295 289 283 278 270 261 256 249 243 240 239 240 231 215 238 240 235 234 229 223 220 212 207 203 199 201 199 190 187 188 190 191 192 206 227 238 240 252 263 260 258 257 254 239 219 205 190 178 172 168 170 165 156 153 152 155 157 146 140 145 150 150 147 146 148 151 154 156 158 160 159 159
340 341 344 342 336 336 338 339 338 337 334 329 324 315 307 304 299 295 287 280 272 262 255 247 243 240 240 238 219 212 239 238 234 233 227 223 219 211 206 201 198 197 197 192 189 189 183 180 193 212 231 235 227 234 242 246 254 256 244 225 211 196 190 178 174 177 175 162 155 157 153 153 154 148 148 150 153 151 147 149 149 151 155 157 160 162 159 161
339 341 345 344 337 337 339 340 340 340 337 332 326 317 311 306 301 299 292 285 276 267 257 247 242 237 239 241 221 223 236 234 233 232 224 223 217 208 204 198 196 194 193 192 194 192 182 185 201 211 226 229 221 229 238 239 249 254 223 196 195 185 187 180 176 181 176 164 158 160 152 152 155 155 155 154 154 152 150 151 150 153 157 159 163 162 161 163
339 342 344 345 341 337 338 340 341 341 337 332 326 318 313 305 300 298 291 285 275 267 258 246 241 236 238 245 233 231 238 235 232 228 222 221 215 209 203 195 194 192 188 189 201 196 190 197 195 208 222 208 233 238 230 225 234 243 225 211 197 177 178 180 178 179 178 169 161 163 159 153 157 166 160 153 155 155 153 153 152 157 158 161 165 162 164 166
340 341 343 346 344 338 338 340 341 341 337 331 324 318 312 303 299 295 290 288 280 270 260 248 241 236 233 242 241 238 240 234 229 225 222 220 215 210 203 197 193 192 189 185 198 200 203 203 188 200 218 200 227 238 229 226 219 224 222 223 203 174 174 179 178 178 179 178 173 171 164 154 158 167 158 152 158 157 155 156 156 159 160 164 166 163 167 167
340 341 343 346 346 340 339 341 341 339 335 329 323 319 314 308 303 300 300 298 292 282 265 249 240 238 238 254 251 244 240 234 226 222 219 217 216 210 204 201 193 193 193 183 193 206 204 201 189 197 217 210 222 225 224 225 214 215 214 223 206 177 177 180 180 179 178 182 181 174 159 156 161 165 156 155 161 157 157 158 158 161 163 165 166 166 169 167
339 340 344 347 347 342 341 341 340 337 333 332 329 325 323 320 317 313 312 314 311 299 275 254 244 232 196 240 246 242 233 223 220 217 214 213 212 207 203 202 194 195 197 188 194 206 200 195 191 200 218 222 225 223 231 232 226 227 221 226 209 187 183 180 182 184 181 182 182 173 157 157 164 164 158 160 163 159 161 161 161 162 163 167 166 167 171 167
339 340 344 349 349 344 343 342 339 338 338 338 336 334 335 335 337 328 325 329 322 318 306 268 243 219 195 231 247 237 216 210 212 209 204 205 205 203 200 200 198 196 200 200 201 201 197 192 191 205 219 223 226 222 229 232 232 232 225 226 203 191 188 182 185 187 182 181 182 181 166 159 165 166 161 164 165 162 163 163 164 163 163 167 166 168 173 168
338 340 344 350 350 345 344 343 341 343 343 343 342 345 354 3 2 348 342 342 337 42 8 308 129 74 233 225 198 190 203 208 204 198 196 199 202 201 195 197 200 197 199 206 205 197 198 196 196 214 220 218 220 218 227 235 234 234 232 230 192 183 191 188 191 189 182 180 183 186 175 162 166 169 166 166 168 166 166 166 166 165 167 167 165 171 175 171
338 342 344 350 353 347 346 344 346 350 347 351 357 13 28 19 7 347 340 346 157 81 4 282 138 73 205 168 173 191 205 208 196 191 191 192 196 195 192 194 197 196 194 201 203 196 197 198 202 216 217 214 214 217 228 230 238 248 237 235 196 169 181 188 190 189 184 181 181 178 173 172 173 174 172 169 170 169 167 168 168 168 171 168 166 174 176 174
339 342 344 352 354 349 349 349 354 356 356 15 25 46 32 11 359 343 334 356 54 205 306 225 180 130 150 157 189 202 203 194 185 186 187 185 184 185 191 191 189 190 189 197 202 195 196 201 209 215 214 214 215 218 226 221 249 263 225 215 207 175 171 183 188 191 187 184 185 177 171 181 182 179 177 171 170 169 168 170 171 172 173 168 168 177 176 174
339 343 347 353 354 352 354 356 2 11 30 48 41 53 35 358 337 334 329 357 354 306 242 237 218 200 193 183 186 184 173 170 174 188 187 180 173 177 191 187 182 192 193 196 200 194 199 209 215 216 213 219 219 220 226 227 250 259 203 180 186 175 165 174 186 193 191 187 191 187 174 179 185 184 179 174 169 169 170 172 174 176 174 170 172 177 174 173
338 348 349 353 358 357 1 10 33 53 62 58 45 53 37 335 308 41 45 45 343 307 266 225 201 193 198 192 182 166 163 172 181 192 188 178 169 172 194 191 185 196 195 193 196 194 206 215 218 216 216 225 221 217 227 233 249 257 186 149 165 173 162 168 186 192 195 190 189 191 182 179 186 184 180 179 175 171 171 173 177 179 176 175 176 176 173 173
340 352 353 358 2 2 18 49 70 73 62 54 44 37 24 323 337 101 76 49 300 306 326 181 165 187 197 197 192 169 168 186 186 194 194 178 167 171 195 197 191 198 196 197 199 196 209 217 217 218 217 224 225 220 229 234 242 245 146 123 162 185 166 192 203 188 192 190 183 187 187 186 188 183 179 183 179 174 174 174 178 182 180 179 180 178 176 176
342 353 359 1 7 24 61 82 78 70 55 48 40 34 59 54 106 128 82 1 260 64 91 170 139 160 189 202 173 151 166 194 186 200 201 180 174 183 196 196 196 203 201 201 205 206 216 217 215 217 213 223 231 227 233 234 237 236 184 107 231 206 185 209 201 179 183 184 179 180 181 188 192 184 180 182 178 176 179 177 177 182 184 183 181 182 180 179
343 355 4 3 31 75 95 92 74 67 55 43 39 36 79 107 123 128 81 346 163 94 90 127 124 174 199 182 149 141 180 203 184 204 201 177 181 194 197 197 200 206 204 203 208 215 222 215 209 211 212 225 233 228 229 229 236 241 230 240 219 195 193 196 176 169 175 176 178 179 176 187 193 188 182 181 178 178 182 181 179 181 186 186 182 183 184 182
346 359 2 17 83 110 107 92 76 69 45 25 29 37 95 135 152 117 31 240 155 99 122 106 97 168 170 167 154 152 197 185 173 203 193 170 179 195 197 200 204 208 207 203 211 222 220 209 205 207 214 227 230 228 227 222 235 241 223 210 179 168 179 179 167 167 178 186 185 185 181 177 193 196 189 186 185 182 183 183 183 184 186 187 184 184 186 184
353 358 6 78 117 123 108 93 79 67 36 355 358 80 129 155 167 58 352 217 125 89 153 101 77 160 144 173 169 167 186 167 166 197 189 171 174 193 196 197 203 209 206 200 211 224 212 196 203 208 217 225 222 223 217 214 231 237 189 203 187 177 185 169 163 168 174 177 182 189 186 166 197 205 197 194 192 187 186 184 186 189 189 188 187 187 187 186
359 357 39 123 128 123 109 96 72 66 52 304 290 112 142 160 118 27 332 63 97 77 119 114 209 192 151 174 175 181 183 167 174 183 182 173 167 185 196 197 203 209 203 199 209 217 206 193 200 209 219 223 218 218 208 209 227 232 149 213 205 202 186 156 157 166 153 152 172 189 190 178 209 210 201 198 195 191 191 189 189 191 192 191 188 188 190 190
9 357 126 136 133 128 116 96 74 71 80 86 89 106 149 142 68 302 288 7 104 115 106 97 123 136 148 169 175 191 190 180 186 173 175 183 171 180 202 205 203 208 203 204 209 204 205 214 214 211 217 219 217 217 212 214 227 235 217 214 203 190 157 142 169 168 151 178 183 186 191 188 208 207 200 197 197 197 195 192 193 193 193 194 190 187 189 191
19 337 148 143 139 136 126 105 89 81 82 79 91 117 144 132 268 258 265 78 114 118 111 96 108 136 159 173 175 185 185 178 182 171 173 192 180 176 191 195 197 205 201 211 220 207 199 216 219 218 216 216 219 218 215 220 233 248 221 204 204 190 148 134 165 156 151 230 220 188 194 195 197 206 204 202 202 202 196 193 195 194 194 195 190 186 189 192
10 182 158 151 143 139 138 119 98 82 83 83 98 123 145 232 256 261 48 85 115 102 133 142 134 159 165 170 177 174 175 171 169 175 170 177 182 180 189 186 189 201 200 212 222 215 203 218 222 223 216 216 224 222 215 217 227 239 214 200 211 201 169 150 159 169 193 247 207 190 190 196 209 214 210 208 207 205 200 198 197 194 193 192 187 186 191 193
275 177 165 158 146 149 146 119 105 88 92 97 95 103 232 276 269 285 53 86 216 346 157 160 157 177 171 167 173 166 175 176 167 178 180 174 180 188 198 188 182 194 200 205 213 211 214 227 226 222 217 216 223 224 217 214 217 222 207 202 218 209 188 184 175 192 216 167 177 185 181 202 223 222 217 213 210 208 203 201 201 198 192 188 185 185 191 195
232 173 170 164 155 160 142 122 122 100 98 107 81 60 281 283 341 39 28 42 86 26 113 159 167 173 178 176 165 167 179 175 171 185 189 183 186 190 194 197 197 204 208 200 203 211 216 220 217 215 216 214 212 213 211 206 209 214 209 206 223 226 215 224 204 199 199 156 158 176 182 206 210 201 216 215 209 206 198 196 198 196 190 185 185 185 193 201
175 172 172 169 169 163 143 136 131 109 102 93 42 321 282 296 36 29 2 41 59 78 125 180 179 159 186 183 167 183 181 158 183 198 191 192 203 192 185 199 206 208 221 208 202 211 216 220 214 207 210 211 209 214 220 219 212 213 214 213 225 236 243 255 243 233 187 159 143 167 186 226 177 168 199 205 203 203 197 193 190 188 188 185 184 187 194 204
155 168 172 176 183 169 152 151 134 123 108 62 333 292 292 349 32 20 6 36 37 113 139 190 196 177 191 184 180 202 201 163 187 194 194 199 205 191 186 200 198 200 225 224 207 210 218 232 216 201 204 207 208 215 224 241 228 213 212 217 224 229 242 266 275 63 124 156 145 181 189 36 129 157 185 196 199 202 199 194 188 186 187 184 185 190 194 203
152 164 176 188 191 178 163 154 138 135 114 30 306 293 6 24 11 17 7 342 328 330 169 195 206 201 190 176 196 197 183 181 188 186 192 196 194 191 194 197 193 204 229 249 220 207 216 234 196 184 200 206 209 213 214 229 237 209 209 216 223 229 242 266 267 135 155 174 187 202 178 133 152 164 173 187 187 189 191 192 192 191 188 183 187 193 195 200
160 163 180 203 202 198 183 164 158 146 122 313 301 318 30 27 7 8 359 330 325 317 227 208 207 223 196 168 201 191 157 160 190 187 185 184 178 181 193 181 180 211 233 273 260 219 228 237 182 178 206 203 205 213 210 222 232 210 211 214 218 229 239 255 256 216 219 218 189 209 182 161 179 180 172 181 177 176 183 191 197 199 195 191 192 195 196 199
172 165 186 219 214 212 204 184 187 168 206 282 291 326 322 11 25 5 1 335 313 280 258 247 216 229 218 178 188 178 141 153 181 184 181 181 168 167 208 200 187 221 229 253 271 227 239 243 173 173 212 202 198 210 210 219 226 224 232 226 218 226 226 226 234 242 243 222 162 235 208 176 178 178 176 185 184 181 186 195 202 206 207 203 198 195 196 198
169 160 203 234 228 219 216 191 180 182 251 273 271 207 259 16 34 5 6 350 316 296 283 275 213 211 219 189 181 161 147 164 177 180 185 191 164 150 205 213 193 219 225 235 254 216 234 253 190 171 206 199 195 209 211 212 218 226 241 244 227 226 228 229 235 249 262 246 154 230 218 144 106 155 181 194 196 193 196 201 206 209 209 206 201 197 193 193
148 159 221 250 258 229 205 182 189 229 250 258 273 231 248 336 21 4 3 351 320 307 305 298 211 200 186 190 188 168 170 171 169 180 183 183 157 138 175 207 194 205 214 222 240 230 234 253 242 178 192 199 197 205 211 209 208 215 224 231 226 220 225 240 243 244 259 265 227 231 205 91 88 151 182 204 202 200 206 208 209 211 208 206 204 199 194 191
160 201 230 257 268 233 200 204 230 252 249 232 252 300 281 312 330 337 346 340 329 333 337 328 205 196 183 194 191 181 189 169 162 177 179 179 180 141 165 197 197 196 199 204 218 222 228 248 246 200 186 203 205 203 210 215 213 211 216 224 227 222 222 232 237 240 256 261 240 236 119 107 186 165 175 202 203 204 213 210 210 213 212 207 203 201 198 195
155 213 237 258 261 222 205 240 247 249 246 211 202 2 354 322 304 299 295 296 304 310 341 338 194 197 200 200 196 194 195 171 165 176 166 158 137 108 152 189 196 194 206 209 211 214 225 252 257 241 220 210 208 209 209 215 222 221 220 222 227 228 223 228 235 240 254 262 252 238 187 183 226 189 172 191 201 206 211 205 204 209 211 206 202 202 201 199
159 248 261 264 250 211 210 245 244 232 231 216 214 242 323 315 305 313 310 307 310 298 325 351 203 218 199 198 224 200 175 177 170 158 141 126 119 149 159 143 146 178 218 233 230 211 218 240 251 257 257 210 195 204 205 210 223 229 226 223 225 226 221 225 235 248 258 261 257 247 194 164 220 187 164 177 187 195 196 191 193 200 207 205 202 201 200 201
227 256 270 262 236 203 214 251 252 232 229 224 221 221 253 294 326 355 1 358 346 341 347 121 237 247 191 190 237 199 172 190 181 158 158 141 158 183 176 140 126 155 256 249 243 202 213 233 236 241 242 190 174 178 193 208 223 229 229 225 224 228 228 226 227 241 259 262 262 265 201 152 181 55 121 180 178 186 184 179 186 198 206 203 200 201 201 200
219 226 229 247 225 202 223 255 251 231 217 205 209 208 198 197 262 293 340 9 353 330 314 187 277 265 224 226 231 215 212 206 195 192 178 162 170 183 192 185 131 18 269 233 223 226 232 241 235 236 236 203 184 199 213 214 218 223 231 231 227 228 231 232 225 224 242 257 263 266 163 146 202 312 326 269 178 197 188 175 182 191 199 201 199 200 201 199
210 226 224 224 217 217 231 245 238 233 217 197 195 200 206 193 60 213 252 325 327 329 328 325 329 271 231 234 225 216 239 241 215 204 190 172 169 181 205 214 331 300 258 234 244 245 245 244 239 248 254 247 273 306 267 225 211 214 226 229 230 230 228 234 234 222 227 240 247 253 232 192 254 284 305 309 177 190 190 181 184 184 190 198 199 199 199 199
201 232 235 210 201 219 227 222 224 228 209 199 199 197 210 234 69 169 210 327 298 289 298 289 329 302 245 227 226 215 226 269 241 201 206 206 195 225 232 211 306 294 287 306 295 258 245 242 236 244 249 246 263 290 268 230 213 211 218 221 227 235 230 235 238 227 223 233 239 252 260 250 258 270 285 289 221 194 192 182 183 185 189 195 199 201 201 199
214 247 246 209 192 213 224 208 210 214 206 206 202 200 214 226 219 185 39 7 300 271 281 273 313 317 285 244 247 231 219 248 255 217 228 244 240 253 250 213 267 320 316 278 274 255 244 240 229 233 238 234 247 262 241 224 221 217 216 215 223 231 227 231 239 233 224 231 244 280 281 249 251 245 253 264 245 230 208 178 181 187 190 192 198 204 206 203
218 242 239 214 208 232 233 201 201 213 213 208 195 204 219 209 192 212 344 3 347 306 285 267 281 307 304 271 262 236 210 227 251 238 239 255 255 257 253 234 256 324 320 270 257 255 252 241 232 250 249 224 228 240 222 216 226 224 218 221 233 235 226 227 234 230 229 233 239 256 256 249 252 234 234 245 228 222 222 187 189 190 188 190 193 200 206 207
208 213 208 206 214 230 220 202 210 212 199 194 193 195 203 183 152 163 278 353 356 346 292 217 190 337 1 288 246 208 194 218 265 229 225 249 256 245 245 253 272 296 306 294 270 260 254 236 231 262 265 229 215 221 215 215 220 213 212 238 245 239 232 232 235 233 235 235 226 224 225 224 228 187 180 200 209 226 272 233 199 193 190 190 189 192 201 207
209 206 200 198 206 215 209 202 213 211 199 200 201 189 183 172 146 137 109 12 18 41 72 113 132 124 97 104 116 118 152 211 231 167 214 255 265 234 236 256 276 287 295 304 297 273 251 239 232 246 253 233 211 212 213 211 208 198 194 290 252 236 235 240 246 243 241 235 231 236 231 216 212 177 176 203 216 240 288 273 208 197 194 192 191 193 198 203
209 206 205 201 201 213 212 206 212 214 210 202 180 169 178 168 157 178 228 3 16 55 78 119 184 231 169 134 134 114 108 166 198 213 235 256 278 259 246 257 281 288 285 295 303 277 245 242 238 238 242 228 212 215 210 203 202 196 176 33 356 231 224 237 250 233 226 224 227 238 234 223 230 231 225 231 228 227 261 268 221 200 197 195 197 201 201 202
Height
3152 3151 3151 3150 3150 3149 3149 3149 3148 3148 3147 3147 3146 3146 3146 3146 3145 3145 3145 3145 3146 3146 3146 3147 3147 3148 3148 3149 3149 3150 3151 3151 3152 3153 3153 3153 3153 3154 3155 3157 3159 3160 3161 3162 3164 3165 3166 3166 3166 3167 3167 3168 3169 3169 3168 3168 3168 3167 3166 3165 3166 3167 3166 3166 3166 3167 3169 3169 3171 3172 3174 3175 3175 3176 3178 3179 3181 3183 3184 3186 3188 3190 3193 3194 3194 3195 3197 3199
3152 3151 3150 3150 3149 3149 3148 3148 3147 3147 3147 3146 3146 3145 3145 3145 3144 3144 3144 3144 3144 3145 3145 3145 3146 3146 3147 3147 3148 3149 3149 3150 3150 3151 3151 3152 3153 3154 3155 3156 3158 3159 3160 3162 3164 3165 3165 3166 3166 3167 3168 3169 3170 3169 3168 3168 3168 3167 3168 3167 3166 3168 3167 3165 3166 3168 3169 3170 3171 3173 3174 3175 3176 3177 3178 3179 3181 3183 3185 3186 3189 3190 3192 3193 3194 3196 3198 3200
3152 3151 3150 3149 3149 3148 3147 3147 3146 3146 3146 3145 3145 3144 3144 3144 3143 3143 3143 3143 3143 3143 3144 3144 3144 3145 3145 3146 3147 3148 3148 3149 3149 3149 3149 3150 3152 3153 3154 3156 3157 3158 3160 3162 3163 3164 3165 3165 3166 3167 3168 3170 3170 3169 3169 3168 3168 3167 3168 3167 3167 3168 3168 3166 3167 3168 3169 3170 3171 3173 3174 3175 3176 3177 3178 3180 3181 3184 3186 3187 3188 3189 3191 3192 3195 3197 3199 3200
3152 3151 3150 3149 3148 3148 3147 3146 3145 3145 3144 3144 3144 3144 3143 3143 3142 3142 3142 3142 3142 3142 3142 3143 3143 3143 3144 3145 3146 3146 3147 3149 3147 3146 3148 3149 3151 3152 3154 3155 3156 3157 3159 3160 3161 3162 3164 3165 3166 3167 3168 3170 3170 3169 3168 3168 3168 3167 3167 3167 3166 3167 3167 3167 3166 3167 3169 3171 3172 3173 3174 3175 3177 3178 3179 3180 3182 3185 3187 3187 3188 3189 3191 3193 3195 3198 3199 3201
3151 3150 3149 3148 3147 3147 3146 3146 3145 3144 3143 3143 3143 3143 3142 3142 3141 3141 3141 3141 3141 3141 3141 3142 3142 3142 3143 3143 3145 3145 3147 3148 3145 3145 3148 3148 3150 3152 3153 3154 3155 3156 3157 3159 3160 3161 3163 3164 3165 3167 3168 3169 3170 3169 3168 3168 3168 3167 3166 3166 3166 3166 3167 3167 3166 3167 3169 3171 3172 3174 3175 3176 3177 3178 3179 3181 3184 3186 3187 3187 3188 3190 3192 3194 3196 3198 3200 3202
3151 3150 3149 3148 3147 3146 3145 3145 3144 3144 3143 3142 3142 3141 3141 3141 3140 3140 3140 3140 3140 3140 3140 3140 3140 3141 3141 3142 3144 3144 3146 3146 3142 3143 3147 3147 3149 3151 3152 3153 3154 3155 3156 3157 3159 3161 3162 3163 3165 3166 3167 3169 3169 3169 3169 3168 3167 3167 3167 3166 3166 3166 3166 3166 3166 3166 3169 3171 3172 3174 3175 3177 3177 3179 3180 3182 3185 3186 3187 3188 3189 3190 3193 3195 3197 3199 3200 3202
3151 3150 3148 3147 3146 3146 3145 3144 3143 3143 3142 3141 3141 3140 3140 3139 3139 3139 3139 3139 3139 3138 3138 3139 3139 3139 3140 3141 3142 3143 3145 3144 3141 3143 3145 3146 3148 3149 3150 3152 3153 3154 3155 3156 3158 3160 3162 3163 3165 3166 3168 3170 3169 3169 3169 3168 3167 3167 3167 3167 3166 3166 3166 3167 3166 3167 3170 3171 3172 3174 3176 3177 3178 3179 3180 3183 3185 3186 3187 3188 3189 3191 3193 3195 3198 3200 3201 3202
3150 3149 3148 3147 3146 3145 3144 3144 3143 3142 3141 3140 3140 3139 3139 3138 3138 3138 3138 3138 3137 3137 3137 3137 3138 3138 3138 3140 3140 3142 3144 3142 3140 3142 3144 3145 3147 3147 3149 3151 3152 3154 3154 3156 3158 3160 3162 3163 3165 3167 3169 3170 3168 3169 3169 3169 3168 3167 3167 3167 3167 3167 3167 3168 3168 3168 3170 3172 3172 3174 3177 3179 3179 3180 3181 3184 3185 3186 3187 3188 3190 3192 3194 3196 3198 3200 3201 3203
3150 3149 3148 3147 3146 3145 3144 3143 3142 3141 3141 3140 3139 3138 3138 3137 3137 3137 3136 3136 3136 3136 3136 3136 3137 3136 3137 3138 3139 3142 3142 3139 3140 3142 3143 3144 3145 3146 3148 3150 3152 3153 3154 3156 3157 3159 3161 3163 3165 3167 3169 3169 3168 3168 3168 3169 3169 3167 3166 3167 3166 3167 3167 3168 3169 3168 3170 3172 3173 3174 3177 3179 3180 3181 3183 3185 3186 3186 3187 3189 3190 3192 3194 3196 3198 3200 3202 3204
3149 3148 3147 3146 3145 3144 3143 3143 3142 3141 3140 3139 3138 3138 3137 3136 3136 3135 3135 3135 3135 3135 3135 3135 3135 3135 3136 3137 3139 3141 3138 3137 3140 3141 3142 3143 3144 3146 3147 3149 3151 3153 3154 3155 3156 3158 3161 3164 3166 3167 3168 3168 3168 3168 3169 3170 3168 3165 3166 3166 3166 3166 3167 3168 3169 3169 3171 3172 3173 3175 3177 3179 3180 3181 3183 3185 3186 3187 3188 3189 3191 3193 3195 3197 3199 3201 3203 3204
3149 3148 3147 3146 3144 3144 3143 3142 3141 3140 3140 3139 3138 3137 3136 3135 3135 3135 3134 3134 3134 3134 3134 3134 3134 3135 3135 3135 3138 3138 3135 3136 3139 3139 3141 3142 3143 3145 3146 3148 3150 3152 3154 3155 3156 3158 3160 3163 3166 3167 3167 3166 3167 3168 3170 3170 3167 3165 3165 3166 3165 3166 3167 3168 3169 3171 3174 3174 3174 3175 3177 3179 3181 3182 3184 3185 3187 3188 3189 3190 3192 3194 3196 3198 3199 3201 3203 3205
3148 3147 3146 3145 3144 3143 3142 3142 3141 3140 3139 3138 3137 3136 3136 3135 3134 3134 3134 3133 3133 3133 3133 3133 3133 3134 3134 3135 3136 3134 3133 3136 3137 3138 3140 3141 3143 3144 3145 3147 3149 3151 3153 3155 3156 3157 3159 3162 3164 3166 3166 3166 3167 3169 3169 3168 3167 3165 3166 3166 3165 3165 3167 3168 3169 3172 3175 3175 3174 3176 3178 3180 3182 3184 3184 3186 3187 3189 3190 3191 3193 3195 3196 3198 3200 3201 3203 3205
3148 3147 3145 3145 3144 3142 3142 3141 3140 3139 3138 3137 3136 3136 3135 3134 3134 3133 3133 3132 3132 3132 3132 3132 3132 3132 3133 3134 3133 3132 3133 3135 3136 3137 3139 3141 3142 3143 3144 3146 3148 3150 3152 3154 3156 3157 3159 3160 3162 3164 3165 3166 3168 3168 3167 3167 3167 3165 3166 3166 3165 3166 3167 3168 3170 3172 3174 3176 3175 3176 3178 3180 3182 3183 3184 3187 3188 3189 3191 3192 3194 3195 3197 3199 3200 3201 3203 3205
3147 3146 3145 3144 3143 3142 3141 3140 3140 3139 3138 3136 3135 3135 3134 3133 3133 3133 3132 3132 3131 3131 3131 3131 3131 3131 3132 3132 3131 3132 3134 3134 3135 3137 3138 3140 3141 3142 3144 3145 3147 3149 3150 3153 3155 3157 3158 3158 3159 3161 3163 3164 3166 3166 3165 3167 3166 3165 3166 3165 3165 3167 3167 3168 3170 3172 3174 3176 3176 3176 3177 3179 3181 3182 3184 3187 3189 3190 3191 3193 3195 3196 3197 3199 3200 3202 3203 3205
3147 3146 3145 3144 3143 3142 3141 3140 3139 3138 3137 3136 3135 3134 3133 3133 3132 3132 3132 3131 3131 3131 3130 3130 3131 3131 3132 3132 3131 3132 3133 3133 3134 3135 3137 3139 3141 3142 3144 3145 3147 3148 3150 3151 3154 3155 3155 3156 3158 3160 3162 3162 3163 3164 3166 3166 3165 3165 3166 3165 3166 3167 3167 3168 3170 3171 3173 3175 3177 3177 3178 3180 3181 3182 3184 3187 3190 3191 3192 3194 3196 3197 3198 3199 3201 3203 3204 3205
3146 3145 3144 3143 3143 3142 3141 3140 3138 3137 3136 3135 3134 3133 3133 3132 3132 3132 3131 3131 3130 3130 3130 3130 3130 3130 3132 3132 3131 3131 3133 3133 3133 3135 3137 3139 3140 3142 3143 3145 3147 3148 3149 3150 3152 3153 3153 3155 3157 3160 3162 3163 3163 3165 3166 3165 3164 3164 3165 3165 3165 3167 3167 3168 3170 3171 3173 3175 3176 3177 3178 3180 3182 3183 3184 3187 3189 3191 3192 3194 3196 3197 3199 3200 3201 3203 3204 3205
3146 3145 3144 3143 3142 3141 3140 3139 3138 3137 3136 3135 3134 3133 3132 3132 3132 3131 3131 3131 3130 3130 3130 3130 3130 3131 3131 3131 3131 3132 3132 3132 3133 3134 3136 3138 3140 3141 3143 3145 3146 3148 3149 3150 3151 3153 3154 3155 3157 3159 3161 3162 3163 3165 3165 3164 3163 3164 3165 3165 3165 3167 3168 3168 3170 3170 3172 3174 3176 3177 3178 3179 3181 3183 3185 3187 3189 3191 3192 3194 3196 3197 3199 3200 3202 3204 3205 3206
3145 3144 3143 3142 3142 3141 3140 3138 3137 3136 3135 3134 3133 3133 3133 3132 3132 3131 3131 3130 3130 3130 3130 3130 3130 3132 3132 3131 3132 3132 3132 3132 3133 3134 3136 3138 3140 3141 3143 3145 3147 3148 3150 3151 3152 3154 3155 3156 3158 3160 3160 3161 3162 3163 3163 3162 3164 3164 3165 3166 3165 3167 3167 3167 3169 3170 3172 3174 3175 3177 3178 3179 3182 3184 3185 3187 3189 3190 3192 3194 3196 3197 3199 3201 3203 3204 3205 3206
3145 3144 3143 3142 3141 3140 3139 3138 3137 3136 3135 3134 3133 3133 3133 3133 3132 3131 3130 3130 3130 3130 3131 3131 3130 3132 3132 3131 3132 3132 3131 3132 3133 3135 3136 3138 3139 3141 3143 3145 3147 3148 3151 3152 3153 3154 3155 3157 3158 3158 3158 3159 3160 3161 3162 3162 3164 3164 3165 3166 3165 3165 3166 3166 3166 3169 3171 3173 3174 3177 3179 3180 3182 3184 3185 3186 3188 3190 3192 3194 3196 3197 3199 3200 3203 3204 3205 3207
3144 3143 3142 3142 3141 3140 3139 3138 3137 3136 3135 3134 3133 3133 3133 3134 3133 3132 3131 3130 3130 3130 3131 3132 3131 3133 3133 3133 3132 3131 3131 3132 3134 3136 3136 3138 3140 3142 3143 3145 3147 3149 3152 3154 3154 3155 3156 3157 3157 3156 3157 3158 3160 3161 3162 3163 3164 3163 3164 3165 3164 3163 3164 3164 3164 3167 3170 3172 3174 3177 3178 3181 3183 3184 3185 3185 3187 3189 3191 3193 3195 3196 3198 3200 3203 3204 3205 3206
3144 3143 3142 3141 3140 3139 3138 3137 3136 3135 3135 3134 3134 3133 3134 3135 3135 3133 3132 3131 3131 3130 3131 3132 3131 3133 3133 3133 3132 3131 3132 3134 3135 3137 3137 3138 3140 3143 3144 3146 3148 3150 3151 3154 3155 3155 3156 3156 3155 3155 3157 3159 3160 3161 3161 3163 3164 3163 3162 3162 3163 3162 3163 3163 3164 3166 3168 3171 3173 3176 3178 3181 3183 3184 3184 3184 3185 3187 3190 3192 3193 3195 3197 3199 3202 3203 3204 3206
3143 3142 3141 3141 3140 3139 3138 3137 3136 3136 3135 3135 3134 3133 3134 3135 3133 3133 3132 3132 3134 3132 3131 3131 3130 3131 3131 3132 3132 3133 3134 3135 3136 3137 3137 3138 3141 3144 3145 3146 3149 3150 3151 3154 3154 3155 3155 3154 3154 3156 3158 3159 3159 3160 3162 3162 3163 3164 3162 3161 3163 3163 3163 3163 3163 3165 3168 3169 3172 3175 3178 3181 3182 3183 3183 3183 3184 3187 3189 3192 3193 3195 3196 3198 3200 3202 3204 3206
3143 3142 3141 3140 3140 3139 3138 3138 3137 3136 3136 3135 3135 3133 3134 3135 3133 3133 3131 3132 3134 3133 3131 3131 3131 3133 3132 3132 3132 3132 3135 3137 3137 3137 3137 3139 3142 3144 3146 3147 3149 3151 3151 3153 3153 3153 3153 3153 3154 3157 3158 3159 3159 3160 3161 3161 3162 3163 3162 3162 3164 3163 3163 3163 3163 3165 3167 3168 3171 3174 3177 3179 3181 3182 3183 3183 3184 3186 3189 3191 3193 3195 3196 3198 3200 3202 3204 3205
3142 3142 3141 3140 3139 3139 3138 3138 3137 3137 3136 3136 3135 3134 3134 3134 3133 3133 3131 3132 3135 3134 3133 3132 3132 3134 3134 3133 3132 3132 3136 3138 3137 3138 3137 3138 3142 3144 3146 3147 3149 3150 3151 3152 3152 3153 3152 3153 3155 3156 3157 3158 3159 3159 3160 3161 3161 3161 3161 3162 3163 3162 3162 3162 3163 3165 3167 3168 3170 3173 3177 3178 3179 3181 3182 3183 3184 3186 3188 3190 3192 3194 3196 3198 3200 3202 3203 3205
3142 3141 3141 3140 3139 3139 3139 3139 3138 3138 3137 3136 3136 3135 3135 3134 3134 3133 3132 3133 3135 3134 3133 3132 3133 3134 3134 3133 3133 3133 3137 3138 3138 3138 3137 3138 3142 3144 3146 3147 3148 3150 3150 3151 3152 3152 3152 3153 3154 3156 3157 3158 3159 3159 3159 3160 3160 3160 3160 3162 3161 3160 3161 3161 3163 3165 3167 3168 3169 3172 3175 3176 3178 3180 3180 3181 3183 3185 3187 3189 3191 3193 3195 3197 3199 3201 3203 3205
3142 3141 3140 3140 3139 3140 3139 3139 3139 3138 3138 3137 3137 3137 3136 3135 3134 3134 3133 3133 3133 3133 3133 3133 3133 3133 3133 3133 3134 3135 3138 3138 3138 3138 3137 3138 3142 3144 3146 3147 3147 3148 3150 3151 3152 3152 3151 3152 3154 3155 3157 3158 3158 3158 3158 3159 3160 3159 3159 3162 3161 3159 3161 3162 3163 3165 3166 3167 3168 3170 3172 3174 3177 3178 3179 3180 3182 3184 3185 3187 3190 3191 3193 3195 3198 3200 3202 3204
3141 3141 3140 3140 3140 3140 3140 3140 3139 3138 3140 3140 3139 3138 3137 3136 3136 3136 3135 3133 3133 3134 3133 3134 3134 3133 3134 3134 3135 3136 3137 3137 3138 3138 3137 3138 3141 3144 3145 3147 3147 3148 3149 3151 3151 3150 3150 3151 3153 3155 3156 3157 3157 3157 3157 3159 3159 3157 3158 3161 3161 3161 3162 3163 3164 3165 3166 3167 3168 3170 3171 3172 3174 3176 3178 3180 3182 3183 3184 3186 3188 3190 3192 3194 3197 3199 3201 3203
3141 3140 3140 3140 3140 3140 3140 3140 3139 3139 3140 3141 3139 3138 3137 3137 3136 3136 3135 3133 3133 3135 3134 3134 3134 3133 3134 3135 3135 3137 3137 3137 3138 3138 3138 3139 3141 3143 3144 3145 3147 3147 3148 3150 3149 3148 3149 3150 3152 3155 3156 3156 3156 3156 3156 3158 3158 3158 3159 3161 3162 3162 3163 3164 3165 3166 3167 3167 3168 3170 3171 3172 3173 3174 3177 3179 3180 3182 3183 3185 3187 3189 3191 3193 3196 3198 3200 3202
3141 3140 3140 3140 3140 3141 3140 3140 3140 3139 3140 3140 3139 3138 3138 3138 3137 3138 3136 3134 3133 3134 3134 3134 3133 3134 3135 3135 3136 3138 3137 3138 3139 3138 3139 3140 3140 3142 3143 3145 3147 3147 3148 3148 3148 3148 3149 3150 3152 3154 3155 3155 3156 3156 3156 3157 3158 3158 3159 3162 3162 3161 3162 3166 3166 3166 3167 3166 3166 3168 3170 3171 3172 3173 3175 3177 3178 3179 3181 3183 3185 3187 3189 3191 3194 3198 3200 3202
3140 3140 3140 3140 3141 3141 3141 3141 3140 3140 3140 3140 3139 3139 3138 3138 3139 3138 3135 3133 3133 3133 3134 3134 3134 3135 3136 3136 3136 3138 3138 3139 3139 3139 3140 3141 3141 3141 3142 3144 3146 3147 3148 3148 3147 3148 3149 3150 3152 3153 3153 3155 3156 3156 3156 3157 3158 3158 3159 3161 3162 3160 3161 3164 3166 3165 3166 3166 3165 3167 3168 3169 3171 3171 3173 3174 3175 3177 3179 3181 3184 3186 3188 3190 3193 3196 3199 3200
3140 3140 3140 3141 3141 3141 3141 3141 3141 3141 3140 3140 3140 3139 3139 3138 3139 3136 3132 3132 3133 3133 3134 3135 3135 3136 3136 3136 3137 3137 3138 3138 3139 3139 3140 3141 3142 3142 3143 3144 3145 3146 3148 3147 3146 3147 3149 3150 3151 3152 3152 3154 3155 3155 3155 3157 3158 3159 3159 3161 3161 3160 3160 3163 3166 3166 3165 3165 3165 3165 3167 3169 3170 3169 3170 3172 3173 3175 3177 3178 3181 3183 3186 3189 3192 3195 3197 3198
3140 3140 3140 3141 3141 3142 3142 3141 3141 3141 3141 3141 3140 3140 3140 3139 3137 3134 3132 3133 3134 3133 3133 3135 3135 3135 3136 3136 3137 3137 3138 3138 3138 3139 3140 3140 3141 3142 3143 3143 3144 3145 3146 3146 3146 3147 3148 3149 3150 3151 3151 3152 3153 3154 3154 3156 3158 3159 3159 3161 3160 3156 3158 3163 3164 3164 3163 3163 3164 3164 3166 3168 3168 3167 3167 3169 3171 3173 3175 3177 3180 3182 3185 3188 3191 3194 3195 3197
3140 3140 3140 3141 3142 3142 3142 3142 3141 3141 3141 3141 3140 3140 3141 3138 3135 3134 3133 3133 3134 3134 3134 3135 3135 3135 3136 3136 3136 3137 3137 3137 3138 3139 3140 3140 3141 3141 3142 3142 3143 3143 3143 3143 3145 3145 3146 3147 3148 3150 3150 3151 3152 3153 3153 3154 3156 3157 3158 3159 3159 3155 3156 3159 3159 3159 3160 3162 3162 3164 3166 3167 3166 3166 3167 3167 3168 3171 3173 3175 3178 3182 3184 3187 3190 3192 3194 3195
3139 3140 3140 3141 3142 3142 3142 3142 3142 3142 3142 3141 3141 3141 3141 3138 3135 3136 3135 3134 3135 3135 3135 3135 3135 3136 3136 3136 3136 3136 3136 3137 3139 3139 3139 3140 3139 3139 3141 3142 3142 3143 3142 3142 3142 3143 3143 3143 3144 3147 3148 3149 3151 3152 3152 3153 3154 3155 3156 3158 3158 3156 3156 3156 3155 3156 3157 3159 3162 3164 3165 3165 3164 3166 3167 3167 3168 3170 3172 3173 3176 3181 3184 3186 3189 3191 3192 3194
3139 3140 3140 3141 3142 3142 3142 3142 3142 3142 3142 3141 3142 3141 3140 3138 3136 3136 3136 3135 3136 3135 3135 3135 3135 3135 3136 3136 3136 3136 3136 3137 3138 3139 3139 3139 3139 3139 3141 3142 3142 3143 3142 3140 3140 3140 3141 3139 3139 3142 3146 3148 3149 3151 3152 3153 3152 3153 3156 3157 3157 3156 3156 3155 3154 3156 3157 3159 3162 3164 3164 3164 3163 3165 3166 3166 3166 3168 3170 3172 3174 3179 3181 3184 3188 3190 3191 3193
3140 3140 3141 3142 3142 3143 3143 3143 3143 3143 3142 3142 3142 3141 3140 3139 3138 3138 3137 3136 3136 3135 3135 3135 3134 3134 3135 3136 3136 3135 3135 3137 3138 3138 3139 3139 3139 3140 3141 3141 3143 3143 3142 3140 3140 3139 3139 3138 3138 3142 3145 3147 3149 3150 3152 3153 3151 3152 3154 3155 3156 3157 3157 3156 3155 3157 3158 3158 3160 3161 3162 3163 3163 3164 3165 3165 3164 3165 3168 3171 3174 3177 3179 3182 3186 3188 3190 3191
3140 3141 3142 3142 3142 3143 3143 3143 3143 3143 3143 3143 3142 3141 3140 3139 3139 3139 3138 3137 3136 3136 3135 3135 3135 3134 3134 3135 3136 3135 3134 3137 3138 3138 3138 3139 3140 3141 3141 3141 3142 3143 3143 3143 3142 3140 3139 3138 3138 3143 3145 3146 3148 3150 3151 3152 3152 3152 3153 3154 3156 3157 3157 3157 3156 3155 3155 3155 3156 3157 3159 3162 3162 3163 3164 3164 3163 3164 3166 3169 3173 3175 3177 3180 3183 3186 3188 3190
3140 3141 3142 3143 3142 3143 3143 3143 3143 3143 3143 3143 3143 3142 3141 3140 3139 3139 3139 3138 3137 3137 3136 3134 3135 3135 3134 3135 3135 3135 3135 3138 3139 3139 3139 3139 3140 3142 3142 3142 3143 3144 3144 3144 3143 3143 3141 3137 3137 3142 3144 3145 3148 3149 3150 3151 3151 3151 3152 3153 3155 3156 3156 3156 3155 3153 3152 3153 3155 3156 3156 3159 3161 3161 3162 3164 3164 3164 3166 3168 3171 3173 3175 3178 3181 3184 3187 3189
3140 3142 3143 3143 3142 3143 3143 3143 3143 3143 3144 3144 3143 3142 3141 3140 3140 3140 3139 3139 3138 3138 3136 3134 3134 3134 3134 3135 3135 3135 3137 3138 3139 3140 3140 3139 3140 3142 3143 3143 3143 3144 3145 3144 3144 3144 3142 3138 3137 3140 3143 3144 3146 3147 3147 3148 3150 3151 3152 3153 3154 3154 3155 3154 3153 3152 3151 3152 3155 3156 3155 3156 3160 3161 3162 3163 3164 3165 3166 3168 3169 3171 3173 3176 3179 3182 3185 3188
3141 3143 3144 3142 3142 3143 3143 3143 3144 3144 3144 3144 3142 3142 3141 3140 3140 3140 3140 3139 3138 3138 3137 3135 3135 3135 3135 3135 3135 3135 3137 3138 3139 3140 3140 3140 3140 3141 3143 3144 3143 3144 3145 3144 3144 3144 3144 3141 3138 3138 3141 3142 3142 3143 3144 3146 3148 3150 3151 3152 3152 3153 3154 3154 3153 3151 3150 3150 3152 3155 3156 3157 3160 3161 3161 3162 3163 3164 3166 3167 3168 3170 3172 3174 3177 3180 3183 3186
3141 3144 3143 3141 3142 3143 3143 3143 3144 3143 3143 3143 3142 3142 3141 3140 3140 3140 3140 3139 3139 3138 3138 3137 3137 3136 3136 3136 3136 3136 3137 3137 3138 3139 3139 3140 3140 3141 3143 3143 3143 3144 3145 3144 3145 3145 3144 3141 3138 3137 3139 3140 3140 3142 3144 3145 3146 3147 3149 3150 3151 3151 3152 3152 3152 3151 3150 3149 3150 3153 3156 3157 3159 3160 3160 3161 3162 3163 3165 3166 3167 3168 3170 3172 3175 3177 3180 3183
3141 3143 3142 3140 3141 3142 3143 3144 3143 3143 3142 3142 3142 3142 3141 3141 3141 3140 3139 3139 3139 3139 3138 3138 3138 3138 3137 3137 3137 3137 3137 3137 3138 3139 3138 3139 3140 3142 3142 3143 3143 3143 3144 3144 3144 3143 3143 3141 3138 3136 3136 3137 3139 3141 3143 3145 3146 3146 3147 3149 3150 3150 3151 3152 3152 3151 3150 3150 3150 3152 3155 3157 3158 3159 3159 3160 3161 3162 3163 3164 3165 3166 3168 3169 3172 3175 3177 3180
3142 3143 3141 3140 3141 3142 3143 3144 3143 3142 3142 3141 3142 3142 3141 3141 3141 3140 3140 3139 3139 3139 3139 3139 3139 3139 3139 3139 3138 3138 3138 3138 3138 3139 3139 3140 3142 3142 3142 3142 3143 3143 3143 3143 3143 3142 3143 3143 3141 3138 3136 3136 3139 3141 3142 3144 3145 3145 3145 3147 3148 3148 3150 3151 3152 3152 3151 3150 3150 3150 3153 3158 3158 3158 3158 3159 3160 3161 3161 3162 3163 3165 3166 3167 3170 3173 3175 3178
3142 3143 3140 3139 3139 3141 3143 3143 3143 3142 3142 3141 3142 3142 3141 3141 3141 3141 3141 3140 3140 3140 3140 3140 3140 3140 3140 3140 3140 3139 3140 3140 3140 3140 3141 3142 3143 3142 3143 3143 3143 3144 3144 3143 3143 3142 3143 3144 3142 3139 3135 3134 3135 3139 3141 3143 3145 3144 3144 3145 3146 3147 3148 3149 3151 3154 3152 3151 3151 3150 3153 3158 3158 3157 3159 3158 3159 3160 3160 3161 3162 3164 3165 3167 3168 3171 3174 3177
3141 3142 3141 3139 3139 3140 3142 3142 3142 3142 3142 3142 3142 3141 3141 3141 3141 3141 3141 3141 3141 3141 3140 3141 3141 3141 3141 3141 3141 3141 3141 3141 3141 3142 3142 3143 3143 3143 3143 3143 3143 3144 3144 3143 3143 3144 3144 3144 3143 3140 3136 3132 3132 3136 3138 3141 3143 3144 3144 3144 3145 3146 3147 3147 3150 3153 3153 3152 3152 3151 3153 3157 3158 3157 3158 3158 3159 3159 3160 3161 3162 3163 3164 3166 3167 3170 3173 3176
3139 3141 3141 3140 3140 3140 3141 3141 3141 3141 3141 3141 3141 3141 3141 3141 3141 3141 3141 3141 3141 3141 3141 3141 3141 3141 3141 3141 3142 3142 3142 3142 3142 3142 3143 3143 3144 3144 3143 3144 3144 3144 3143 3144 3144 3144 3145 3144 3144 3143 3140 3137 3137 3138 3138 3139 3140 3142 3143 3144 3144 3145 3146 3147 3148 3150 3152 3153 3153 3152 3153 3156 3157 3157 3157 3158 3159 3159 3159 3160 3161 3162 3164 3165 3167 3170 3173 3176
3139 3140 3140 3139 3140 3140 3140 3141 3141 3141 3141 3141 3141 3141 3141 3141 3141 3141 3141 3141 3141 3141 3141 3141 3142 3142 3142 3142 3142 3142 3143 3143 3142 3143 3143 3144 3144 3144 3144 3144 3145 3144 3143 3144 3144 3145 3145 3144 3143 3143 3142 3141 3141 3141 3140 3139 3139 3140 3142 3143 3144 3144 3146 3147 3147 3148 3151 3152 3151 3152 3154 3155 3157 3157 3157 3158 3158 3158 3159 3159 3160 3162 3163 3165 3167 3170 3172 3174
3138 3139 3139 3138 3138 3139 3140 3140 3140 3141 3141 3141 3141 3141 3141 3141 3142 3141 3141 3141 3142 3142 3142 3142 3142 3142 3142 3142 3143 3143 3144 3144 3144 3144 3145 3145 3145 3145 3144 3145 3145 3144 3144 3145 3145 3145 3145 3144 3142 3142 3141 3141 3141 3141 3141 3140 3139 3139 3139 3141 3143 3144 3146 3147 3147 3148 3151 3152 3151 3153 3154 3155 3157 3158 3157 3157 3159 3159 3158 3159 3160 3161 3163 3164 3166 3168 3171 3174
3137 3138 3138 3138 3138 3139 3139 3139 3140 3140 3141 3141 3141 3141 3141 3141 3142 3142 3142 3142 3142 3142 3142 3142 3143 3143 3143 3143 3143 3143 3144 3144 3145 3145 3145 3146 3146 3145 3145 3145 3145 3145 3145 3145 3145 3145 3144 3143 3143 3142 3140 3139 3140 3140 3140 3140 3140 3139 3139 3141 3142 3143 3144 3145 3147 3148 3150 3150 3152 3154 3155 3155 3156 3157 3158 3158 3159 3159 3158 3158 3159 3160 3162 3164 3165 3167 3170 3173
3135 3136 3136 3137 3138 3139 3139 3139 3140 3140 3140 3140 3141 3141 3141 3142 3142 3142 3143 3142 3142 3142 3142 3142 3143 3143 3143 3144 3144 3144 3144 3145 3145 3145 3146 3146 3146 3146 3146 3146 3146 3146 3145 3145 3145 3144 3144 3143 3143 3142 3140 3138 3139 3140 3140 3140 3141 3141 3142 3144 3144 3144 3145 3145 3146 3147 3148 3149 3151 3153 3155 3155 3155 3157 3159 3159 3158 3158 3157 3157 3158 3160 3162 3163 3165 3167 3169 3171
3132 3134 3135 3136 3138 3138 3138 3139 3139 3140 3140 3140 3141 3141 3141 3142 3142 3143 3143 3143 3143 3143 3142 3143 3143 3143 3144 3144 3144 3144 3145 3145 3145 3145 3146 3146 3146 3146 3146 3146 3146 3146 3145 3145 3145 3144 3144 3144 3144 3143 3140 3138 3138 3139 3139 3140 3142 3143 3145 3146 3146 3146 3146 3147 3147 3148 3148 3150 3152 3153 3154 3154 3154 3157 3159 3159 3158 3157 3156 3157 3158 3160 3161 3163 3165 3166 3168 3170
3131 3133 3134 3135 3137 3137 3138 3138 3139 3139 3139 3140 3140 3141 3141 3142 3142 3142 3143 3143 3143 3143 3143 3143 3143 3143 3144 3144 3144 3144 3144 3145 3145 3145 3146 3146 3146 3146 3146 3146 3146 3145 3145 3145 3144 3144 3144 3144 3144 3143 3141 3139 3138 3138 3138 3140 3142 3144 3147 3147 3147 3147 3147 3147 3148 3148 3148 3150 3152 3152 3152 3152 3153 3156 3158 3158 3159 3158 3157 3157 3158 3159 3161 3163 3165 3166 3168 3169